Weather History for LICJ - April, 2013

Change the Weather History Date:

Friday, April 12, 2013

  Actual Average Record
Temperature  
Mean Temperature 66 °F -  
Max Temperature 77 °F 67 °F 80 °F (2002)
Min Temperature 55 °F 57 °F 48 °F (2015)
Cooling Degree Days 1    
Growing Degree Days 16 (Base 50)    
Moisture  
Dew Point 49 °F    
Average Humidity 59    
Maximum Humidity 94    
Minimum Humidity 26    
Precipitation  
Precipitation 0.00 in 0.05 in - ()
Sea Level Pressure  
Sea Level Pressure 30.03 in    
Wind  
Wind Speed 8 mph ()    
Max Wind Speed 20 mph    
Max Gust Speed 31 mph    
Visibility 6.2 miles    
Events      
Averages and records for this station are not official NWS values.
T = Trace of Precipitation, MM = Missing Value Source: Averaged Metar Reports

Daily Weather History Graph

Daily Weather History Graph

Search for Another Location

Airport or City:

Trip Planner

Search our weather history database for the weather conditions in past years. The results will help you decide how hot, cold, wet, or windy it might be!

Date:

Astronomy

Apr. 12, 2013 Rise Set
Actual Time 6:36 AM CEST 7:40 PM CEST
Civil Twilight 6:09 AM CEST 8:08 PM CEST
Nautical Twilight 5:37 AM CEST 8:40 PM CEST
Astronomical Twilight 5:03 AM CEST 9:14 PM CEST
Moon 7:36 AM CEST (4/12) 9:53 PM CEST (4/12)
Length of Visible Light 13h 58m
Length of Day
13h 04m
Waxing Crescent, 4% of the Moon is Illuminated
Apr 12
Waxing Crescent
Apr 18
First Quarter
Apr 25
Full
May 2
Last Quarter
May 10
New

Hourly Weather History & Observations

Time (CEST) Temp. Dew Point Humidity Pressure Visibility Wind Dir Wind Speed Gust Speed Precip Events Conditions
12:20 AM 57.2 °F 53.6 °F 88% 30.04 in - Variable 1.2 mph - N/A   Clear
12:50 AM 57.2 °F 55.4 °F 94% 30.04 in - Variable 3.5 mph - N/A   Clear
1:20 AM 57.2 °F 55.4 °F 94% 30.04 in - SW 4.6 mph - N/A   Clear
1:50 AM 55.4 °F 53.6 °F 94% 30.04 in - Variable 1.2 mph - N/A   Clear
2:20 AM 57.2 °F 53.6 °F 88% 30.04 in - Variable 2.3 mph - N/A   Clear
2:50 AM 55.4 °F 53.6 °F 94% 30.04 in - Variable 2.3 mph - N/A   Clear
3:20 AM 55.4 °F 53.6 °F 94% 30.04 in - SSW 4.6 mph - N/A   Clear
3:50 AM 57.2 °F 53.6 °F 88% 30.01 in - SSW 10.4 mph - N/A   Clear
4:20 AM 57.2 °F 51.8 °F 82% 30.01 in - SSW 10.4 mph - N/A   Clear
4:50 AM 57.2 °F 53.6 °F 88% 30.01 in - Variable 2.3 mph - N/A   Clear
5:20 AM 57.2 °F 53.6 °F 88% 30.01 in - NE 6.9 mph - N/A   Clear
5:50 AM 57.2 °F 55.4 °F 94% 30.01 in - East 10.4 mph - N/A   Clear
6:20 AM 57.2 °F 55.4 °F 94% 30.01 in 6.2 mi East 8.1 mph - N/A   Partly Cloudy
6:50 AM 55.4 °F 53.6 °F 94% 30.01 in - Variable 3.5 mph - N/A   Clear
7:20 AM 55.4 °F 53.6 °F 94% 30.01 in - Variable 1.2 mph - N/A   Clear
7:50 AM 57.2 °F 55.4 °F 94% 30.01 in - Variable 2.3 mph - N/A   Clear
8:20 AM 60.8 °F 57.2 °F 88% 30.01 in - Variable 3.5 mph - N/A   Clear
8:50 AM 60.8 °F 57.2 °F 88% 30.01 in - Variable 3.5 mph - N/A   Clear
9:20 AM 69.8 °F 48.2 °F 46% 30.01 in - South 16.1 mph - N/A   Clear
9:50 AM 71.6 °F 44.6 °F 38% 30.01 in - South 17.3 mph - N/A   Clear
10:20 AM 71.6 °F 42.8 °F 35% 30.04 in - South 19.6 mph - N/A   Clear
10:50 AM 73.4 °F 44.6 °F 36% 30.04 in - South 19.6 mph - N/A   Clear
11:20 AM 73.4 °F 46.4 °F 38% 30.04 in - South 18.4 mph - N/A   Clear
11:50 AM 73.4 °F 48.2 °F 41% 30.04 in - South 17.3 mph - N/A   Clear
12:20 PM 75.2 °F 46.4 °F 36% 30.04 in - South 16.1 mph - N/A   Clear
12:50 PM 75.2 °F 46.4 °F 36% 30.04 in - South 18.4 mph 31.1 mph N/A   Clear
1:20 PM 75.2 °F 48.2 °F 38% 30.04 in - South 19.6 mph - N/A   Clear
1:50 PM 77.0 °F 44.6 °F 32% 30.04 in - South 16.1 mph - N/A   Clear
2:20 PM 77.0 °F 42.8 °F 29% 30.01 in - South 16.1 mph - N/A   Clear
2:50 PM 77.0 °F 42.8 °F 29% 30.01 in - SSW 18.4 mph - N/A   Clear
3:20 PM 77.0 °F 42.8 °F 29% 30.01 in - SSW 18.4 mph - N/A   Clear
3:50 PM 77.0 °F 41.0 °F 28% 30.01 in - SSW 19.6 mph - N/A   Clear
4:20 PM 77.0 °F 41.0 °F 28% 30.01 in - SSW 18.4 mph - N/A   Clear
4:50 PM 77.0 °F 39.2 °F 26% 30.01 in - South 17.3 mph - N/A   Clear
5:20 PM 77.0 °F 42.8 °F 29% 30.01 in - SSW 17.3 mph - N/A   Clear
5:50 PM 69.8 °F 50.0 °F 49% 30.01 in - SW 15.0 mph - N/A   Clear
6:20 PM 71.6 °F 51.8 °F 50% 30.04 in - WSW 13.8 mph - N/A   Clear
6:50 PM 64.4 °F 55.4 °F 73% 30.04 in - NE 4.6 mph - N/A   Clear
7:20 PM 64.4 °F 55.4 °F 73% 30.01 in - Variable 3.5 mph - N/A   Clear
7:50 PM 69.8 °F 42.8 °F 38% 30.04 in - SSW 13.8 mph - N/A   Clear
8:20 PM 68.0 °F 42.8 °F 40% 30.04 in - SSW 13.8 mph - N/A   Clear
8:50 PM 68.0 °F 39.2 °F 35% 30.04 in - South 11.5 mph - N/A   Clear
9:20 PM 69.8 °F 41.0 °F 35% 30.04 in - South 11.5 mph - N/A   Clear
9:50 PM 69.8 °F 44.6 °F 40% 30.04 in - South 10.4 mph - N/A   Clear
10:20 PM 71.6 °F 44.6 °F 38% 30.04 in - SSW 13.8 mph - N/A   Clear
10:50 PM 66.2 °F 50.0 °F 56% 30.04 in - SW 13.8 mph - N/A   Clear
11:20 PM 64.4 °F 48.2 °F 56% 30.06 in - SW 16.1 mph - N/A   Clear
11:50 PM 64.4 °F 48.2 °F 56% 30.06 in - SW 16.1 mph - N/A   Clear